{"data":{"norad_id":69393,"epoch":"2026-09-20T05:03:05.185152Z","epoch_age_seconds":59938,"freshness":"FRESH","line1":"1 69393U 26124M   26263.21047668  .00000107  00000+0  14690-3 0  9998","line2":"2 69393  89.0056 352.0017 0001836 102.9161 257.2195 13.51021391 14884","mean_motion":13.51021391,"eccentricity":0.0001836,"inclination_deg":89.0056,"raan_deg":352.0017,"arg_perigee_deg":102.9161,"mean_anomaly_deg":257.2195,"bstar":0.0001469,"rev_number":1488,"period_min":106.58602518012,"perigee_km":1067.1357783175,"apogee_km":1069.8701845187,"semimajor_km":7446.6399814181,"source":"CELESTRAK","updated_at":"2026-09-20T09:00:24.861432Z"}}